EW7322 Weather Reports


time (UTC)temp
C
wind
direction
speed
KPH
gust
KPH
rain 1hr
cm
rain 24hr
cm
rain mn
cm
humidity
%
barometer
mb
20260502123029 15 139 0.0 0.0 0.00 0.00 0.00 37 1009.0
20260502121528 15 220 0.0 0.0 0.00 0.00 0.00 36 1008.8
20260502114522 15 220 0.0 0.0 0.00 0.00 0.00 36 1008.5
20260502113019 16 195 0.0 0.0 0.00 0.00 0.00 37 1008.5
20260502111522 16 220 0.0 0.0 0.00 0.00 0.00 35 1008.3
20260502110017 16 262 0.0 0.0 0.00 0.00 0.00 35 1008.4
20260502104518 16 262 0.0 0.0 0.00 0.00 0.00 34 1008.5
20260502103014 16 84 0.0 1.6 0.00 0.00 0.00 35 1008.6
20260502101511 16 322 0.0 1.6 0.00 0.00 0.00 33 1008.2
20260502091503 18 98 0.0 1.6 0.00 0.00 0.00 33 1007.7
20260502080105 20 214 0.0 0.0 0.00 0.00 0.00 30 1007.3
20260502070046 20 226 0.0 0.0 0.00 0.00 0.00 28 1007.3
20260502064546 20 226 0.0 0.0 0.00 0.00 0.00 28 1007.3
20260502063045 21 226 0.0 0.0 0.00 0.00 0.00 27 1007.4
20260502061545 21 226 0.0 0.0 0.00 0.00 0.00 27 1007.3
20260502060044 22 226 0.0 0.0 0.00 0.00 0.00 26 1007.2
20260502054544 22 191 0.0 3.2 0.00 0.00 0.00 26 1007.2
20260502053052 23 184 0.0 0.0 0.00 0.00 0.00 25 1006.9
20260502051555 23 159 0.0 0.0 0.00 0.00 0.00 23 1006.9
20260502050054 23 163 0.0 1.6 0.00 0.00 0.00 24 1006.8
20260502044542 24 186 0.0 0.0 0.00 0.00 0.00 24 1006.7
20260502043040 25 163 0.0 0.0 0.00 0.00 0.00 21 1006.7
20260502041540 25 193 0.0 0.0 0.00 0.00 0.00 20 1006.4
20260502040038 25 217 0.0 0.0 0.00 0.00 0.00 20 1006.3
20260502034537 26 217 0.0 0.0 0.00 0.00 0.00 19 1006.1
20260502033039 26 217 0.0 0.0 0.00 0.00 0.00 17 1005.9
20260502031541 27 217 0.0 0.0 0.00 0.00 0.00 16 1005.8
20260502030036 28 278 0.0 0.0 0.00 0.00 0.00 15 1005.6
20260502024537 28 230 0.0 3.2 0.00 0.00 0.00 14 1005.5
20260502023034 28 252 0.0 4.8 0.00 0.00 0.00 13 1005.3
20260502021534 29 217 0.0 3.2 0.00 0.00 0.00 14 1005.1
20260502020032 30 261 0.0 4.8 0.00 0.00 0.00 14 1005.1
20260502014533 31 272 0.0 3.2 0.00 0.00 0.00 14 1005.1
20260502013030 31 263 0.0 6.4 0.00 0.00 0.00 14 1004.9
20260502011550 32 30 0.0 8.0 0.00 0.00 0.00 14 1004.9
20260502010030 32 236 0.0 6.4 0.00 0.00 0.00 13 1005.0
20260502004550 32 162 0.0 8.0 0.00 0.00 0.00 13 1004.9
20260502003029 32 271 0.0 4.8 0.00 0.00 0.00 14 1004.8
20260502001527 32 238 0.0 9.7 0.00 0.00 0.00 15 1004.9
20260502000026 32 214 0.0 9.7 0.00 0.00 0.00 16 1004.9
20260501234527 32 287 0.0 12.9 0.00 0.00 0.00 16 1005.0
20260501233025 32 237 3.2 12.9 0.00 0.00 0.00 16 1005.0
20260501231535 32 239 1.6 12.9 0.00 0.00 0.00 16 1005.0
20260501230023 32 264 0.0 9.7 0.00 0.00 0.00 17 1005.0
20260501224522 32 289 1.6 12.9 0.00 0.00 0.00 16 1005.1
20260501223019 31 259 0.0 11.3 0.00 0.00 0.00 16 1005.4
20260501221519 32 233 0.0 14.5 0.00 0.00 0.00 16 1005.5
20260501220023 32 324 0.0 11.3 0.00 0.00 0.00 17 1005.7
20260501214516 32 160 0.0 12.9 0.00 0.00 0.00 17 1006.0
20260501213023 31 70 0.0 6.4 0.00 0.00 0.00 16 1006.2
20260501211511 31 224 1.6 17.7 0.00 0.00 0.00 16 1006.5
20260501210009 31 287 3.2 12.9 0.00 0.00 0.00 17 1006.6
20260501204507 31 270 3.2 16.1 0.00 0.00 0.00 18 1006.8
20260501203006 31 276 1.6 12.9 0.00 0.00 0.00 18 1007.0
20260501201506 31 71 1.6 11.3 0.00 0.00 0.00 19 1007.1
20260501200003 30 306 1.6 8.0 0.00 0.00 0.00 19 1007.2
20260501194501 31 214 0.0 4.8 0.00 0.00 0.00 20 1007.5
20260501193058 30 280 1.6 8.0 0.00 0.00 0.00 20 1007.7
20260501191557 30 212 1.6 8.0 0.00 0.00 0.00 19 1008.0
20260501190114 30 287 1.6 8.0 0.00 0.00 0.00 20 1008.2
20260501184554 29 246 0.0 6.4 0.00 0.00 0.00 21 1008.5
20260501183053 28 102 0.0 6.4 0.00 0.00 0.00 22 1008.6
20260501181550 28 191 3.2 9.7 0.00 0.00 0.00 23 1008.9
20260501180048 28 262 0.0 4.8 0.00 0.00 0.00 24 1009.1
20260501174549 28 239 0.0 6.4 0.00 0.00 0.00 24 1009.2
20260501173044 28 325 0.0 6.4 0.00 0.00 0.00 25 1009.3
20260501171541 27 231 0.0 6.4 0.00 0.00 0.00 27 1009.3
20260501170040 27 117 0.0 8.0 0.00 0.00 0.00 26 1009.4
20260501164539 27 19 0.0 4.8 0.00 0.00 0.00 27 1009.3
20260501163036 26 299 0.0 1.6 0.00 0.00 0.00 28 1009.5
20260501161537 26 307 0.0 3.2 0.00 0.00 0.00 30 1009.4
20260501160040 25 235 0.0 1.6 0.00 0.00 0.00 31 1009.3
20260501154547 25 279 0.0 1.6 0.00 0.00 0.00 33 1009.1
20260501153025 24 301 0.0 1.6 0.00 0.00 0.00 34 1009.0
20260501151521 23 207 0.0 1.6 0.00 0.00 0.00 35 1008.9
20260501150017 22 184 0.0 3.2 0.00 0.00 0.00 40 1008.7
20260501144518 22 168 0.0 3.2 0.00 0.00 0.00 41 1008.7
20260501143018 21 198 0.0 3.2 0.00 0.00 0.00 43 1008.5